User: anonymous   Login
Location: Keppel Henge
(44.7900°N, 80.9447°W)
Time: 05:03:58
(UTC-05:00)
Language:

Envisat - Orbit

View from above orbital plane
View from above orbital plane
View from above satellite
View from above satellite

Ground track
Ground track

The orbit data is extracted from the following two-line orbital elements,

1 27386U 02009A   18049.79032333 -.00000011  00000-0  10071-4 0  9995
2 27386  98.2004  89.3377 0001308  83.6683 276.4637 14.37915431836510
Epoch (UTC): 18 February 2018 18:58:03
Eccentricity: 0.0001308
inclination: 98.2004°
perigee height: 764 km
apogee height: 766 km
right ascension of ascending node: 89.3377°
argument of perigee: 83.6683°
revolutions per day: 14.37915431
mean anomaly at epoch: 276.4637°
orbit number at epoch: 83651

The dashed part of the orbit path shows where the satellite is in the earth's shadow,  

DLR